QPF
0.00 0.00 0.00 0.00 0.01 0.01 0.00 0.00 0.00 0.01 0.03 0.09 0.06 0.24 0.49 0.32 0.32 0.30 0.24 0.19 0.14 0.10 0.06 0.07 0.09 0.09 0.05 0.01 0.03 0.06 0.03 0.05 0.00 0.00 0.00 0.01 0.00 0.00 0.00 0.00 0.00 0.00 0.00
0.00 0.00 0.00 0.00 0.00 0.00 0.00 0.01 0.02 0.02 0.05 0.03 0.04 0.10 0.31 0.37 0.25 0.18 0.11 0.11 0.11 0.12 0.13 0.13 0.07 0.11 0.03 0.02 0.02 0.01 0.00 0.00 0.00 0.00 0.00 0.00 0.00 0.00 0.00 0.00 0.00 0.00 0.00
0.00 0.00 0.00 0.00 0.00 0.00 0.00 0.01 0.01 0.02 0.05 0.05 0.02 0.05 0.12 0.11 0.13 0.11 0.06 0.09 0.11 0.10 0.08 0.09 0.05 0.07 0.04 0.04 0.03 0.01 0.01 0.00 0.00 0.00 0.00 0.01 0.00 0.00 0.00 0.00 0.00 0.00 0.00
0.00 0.00 0.00 0.00 0.00 0.00 0.00 0.00 0.01 0.05 0.03 0.01 0.00 0.07 0.05 0.06 0.09 0.04 0.01 0.01 0.03 0.04 0.04 0.05 0.08 0.05 0.02 0.04 0.04 0.03 0.02 0.01 0.00 0.00 0.00 0.01 0.03 0.01 0.00 0.00 0.00 0.00 0.00
0.00 0.00 0.00 0.00 0.01 0.01 0.01 0.00 0.01 0.03 0.02 0.00 0.00 0.04 0.03 0.00 0.01 0.03 0.01 0.00 0.00 0.00 0.00 0.00 0.01 0.01 0.02 0.02 0.02 0.03 0.03 0.01 0.00 0.00 0.00 0.00 0.02 0.04 0.00 0.00 0.00 0.00 0.00
0.00 0.00 0.00 0.00 0.00 0.00 0.00 0.00 0.00 0.00 0.01 0.01 0.00 0.03 0.04 0.01 0.00 0.01 0.02 0.00 0.00 0.00 0.00 0.00 0.00 0.00 0.01 0.04 0.05 0.03 0.01 0.03 0.01 0.00 0.00 0.00 0.05 0.07 0.01 0.02 0.04 0.00 0.00
0.00 0.00 0.00 0.00 0.00 0.00 0.00 0.01 0.03 0.02 0.03 0.01 0.01 0.03 0.06 0.02 0.03 0.02 0.01 0.01 0.00 0.00 0.00 0.00 0.00 0.00 0.00 0.01 0.04 0.08 0.08 0.08 0.06 0.04 0.01 0.00 0.01 0.10 0.08 0.06 0.07 0.04 0.02
0.00 0.00 0.00 0.00 0.00 0.00 0.00 0.01 0.04 0.10 0.07 0.01 0.03 0.13 0.09 0.06 0.15 0.11 0.05 0.04 0.01 0.00 0.00 0.00 0.00 0.00 0.00 0.00 0.00 0.01 0.04 0.11 0.15 0.15 0.07 0.07 0.07 0.09 0.06 0.06 0.04 0.01 0.01
0.00 0.00 0.00 0.00 0.00 0.00 0.01 0.01 0.03 0.07 0.15 0.08 0.03 0.12 0.17 0.14 0.14 0.16 0.19 0.05 0.01 0.01 0.01 0.01 0.01 0.00 0.00 0.00 0.00 0.01 0.04 0.06 0.13 0.15 0.16 0.14 0.10 0.08 0.08 0.06 0.03 0.02 0.00
0.00 0.00 0.00 0.00 0.01 0.03 0.02 0.00 0.03 0.09 0.08 0.01 0.04 0.01 0.05 0.07 0.13 0.14 0.18 0.07 0.03 0.02 0.03 0.03 0.03 0.03 0.13 0.10 0.09 0.09 0.04 0.02 0.03 0.04 0.07 0.13 0.15 0.15 0.09 0.03 0.02 0.00 0.00
0.00 0.00 0.01 0.00 0.03 0.09 0.04 0.01 0.01 0.02 0.08 0.08 0.08 0.13 0.14 0.14 0.13 0.16 0.26 0.09 0.02 0.02 0.02 0.02 0.06 0.08 0.07 0.09 0.12 0.13 0.08 0.08 0.10 0.10 0.08 0.09 0.08 0.07 0.05 0.02 0.01 0.00 0.00
0.00 0.00 0.01 0.03 0.02 0.09 0.12 0.02 0.00 0.08 0.14 0.12 0.06 0.12 0.14 0.13 0.17 0.26 0.18 0.06 0.03 0.03 0.03 0.08 0.06 0.03 0.04 0.04 0.05 0.06 0.09 0.09 0.10 0.08 0.06 0.05 0.04 0.02 0.01 0.01 0.01 0.00 0.00
0.00 0.00 0.00 0.00 0.02 0.02 0.07 0.03 0.01 0.09 0.12 0.05 0.04 0.06 0.05 0.06 0.07 0.12 0.09 0.06 0.03 0.02 0.05 0.11 0.05 0.01 0.00 0.00 0.00 0.01 0.02 0.04 0.08 0.06 0.02 0.01 0.00 0.00 0.00 0.00 0.00 0.00 0.00
0.01 0.00 0.00 0.01 0.02 0.00 0.00 0.00 0.01 0.03 0.15 0.11 0.04 0.00 0.00 0.01 0.04 0.05 0.09 0.06 0.03 0.03 0.04 0.02 0.02 0.01 0.00 0.00 0.00 0.00 0.01 0.01 0.01 0.01 0.00 0.00 0.00 0.00 0.00 0.00 0.00 0.00 0.00
0.00 0.00 0.00 0.02 0.07 0.01 0.00 0.00 0.00 0.00 0.00 0.00 0.00 0.00 0.00 0.00 0.00 0.00 0.01 0.03 0.03 0.02 0.03 0.01 0.01 0.01 0.01 0.00 0.00 0.00 0.00 0.00 0.00 0.00 0.00 0.00 0.00 0.00 0.00 0.00 0.00 0.00 0.00
0.00 0.00 0.00 0.00 0.01 0.01 0.01 0.01 0.00 0.00 0.00 0.00 0.00 0.00 0.00 0.00 0.00 0.00 0.00 0.00 0.00 0.00 0.00 0.00 0.00 0.00 0.00 0.00 0.00 0.01 0.00 0.00 0.00 0.00 0.00 0.00 0.00 0.00 0.00 0.00 0.00 0.00 0.00
0.00 0.00 0.00 0.00 0.00 0.00 0.00 0.01 0.00 0.00 0.00 0.00 0.00 0.00 0.00 0.00 0.00 0.00 0.00 0.00 0.00 0.00 0.00 0.00 0.00 0.00 0.00 0.00 0.00 0.00 0.00 0.00 0.00 0.00 0.00 0.00 0.00 0.00 0.00 0.00 0.00 0.00 0.00
0.00 0.00 0.00 0.00 0.00 0.00 0.00 0.00 0.00 0.00 0.00 0.00 0.00 0.00 0.00 0.00 0.00 0.00 0.00 0.00 0.00 0.00 0.00 0.00 0.00 0.00 0.00 0.00 0.00 0.00 0.00 0.00 0.00 0.00 0.00 0.00 0.00 0.00 0.00 0.00 0.00 0.00 0.00
0.00 0.00 0.00 0.00 0.00 0.00 0.00 0.00 0.00 0.00 0.00 0.00 0.00 0.00 0.00 0.00 0.00 0.00 0.00 0.00 0.00 0.00 0.00 0.00 0.00 0.00 0.00 0.00 0.00 0.00 0.00 0.00 0.00 0.00 0.00 0.00 0.00 0.00 0.00 0.00 0.00 0.00 0.00
0.00 0.00 0.00 0.00 0.00 0.00 0.00 0.00 0.00 0.00 0.00 0.00 0.00 0.00 0.00 0.00 0.00 0.00 0.00 0.00 0.00 0.00 0.00 0.00 0.00 0.00 0.00 0.00 0.00 0.00 0.00 0.00 0.00 0.00 0.00 0.00 0.00 0.00 0.00 0.00 0.00 0.00 0.00
0.00 0.00 0.00 0.00 0.00 0.00 0.00 0.00 0.00 0.00 0.00 0.00 0.00 0.00 0.00 0.00 0.00 0.00 0.00 0.00 0.00 0.00 0.00 0.00 0.00 0.00 0.00 0.00 0.00 0.00 0.00 0.00 0.00 0.00 0.00 0.00 0.00 0.00 0.00 0.00 0.00 0.00 0.00
0.00 0.00 0.00 0.00 0.00 0.00 0.00 0.00 0.00 0.00 0.00 0.00 0.00 0.00 0.00 0.00 0.00 0.00 0.00 0.00 0.00 0.00 0.00 0.00 0.00 0.00 0.00 0.00 0.00 0.00 0.00 0.00 0.00 0.00 0.00 0.00 0.00 0.00 0.00 0.00 0.00 0.00 0.00
0.00 0.00 0.00 0.00 0.00 0.00 0.00 0.00 0.00 0.00 0.00 0.00 0.00 0.00 0.00 0.00 0.00 0.00 0.00 0.00 0.00 0.00 0.00 0.00 0.00 0.00 0.00 0.00 0.00 0.00 0.00 0.00 0.00 0.00 0.00 0.00 0.00 0.00 0.00 0.00 0.00 0.00 0.00
0.00 0.00 0.00 0.00 0.00 0.00 0.00 0.00 0.00 0.00 0.00 0.00 0.00 0.00 0.00 0.00 0.00 0.00 0.00 0.00 0.00 0.00 0.00 0.00 0.00 0.00 0.00 0.00 0.00 0.00 0.00 0.00 0.00 0.00 0.00 0.00 0.00 0.00 0.00 0.01 0.01 0.00 0.00
0.00 0.00 0.00 0.00 0.00 0.00 0.00 0.00 0.00 0.00 0.00 0.00 0.00 0.00 0.00 0.00 0.00 0.00 0.00 0.00 0.00 0.00 0.00 0.00 0.00 0.00 0.00 0.00 0.00 0.00 0.00 0.00 0.00 0.00 0.00 0.00 0.00 0.00 0.00 0.00 0.01 0.01 0.01
0.00 0.00 0.00 0.00 0.00 0.00 0.00 0.00 0.00 0.00 0.00 0.00 0.00 0.00 0.00 0.00 0.00 0.00 0.00 0.00 0.00 0.00 0.00 0.00 0.00 0.00 0.00 0.00 0.00 0.00 0.00 0.00 0.00 0.00 0.00 0.00 0.00 0.00 0.00 0.00 0.00 0.00 0.00
MSLP
1012.06 1011.76 1011.49 1011.00 1010.20 1009.60 1009.17 1008.55 1008.21 1008.06 1007.99 1008.02 1008.10 1008.07 1008.09 1007.99 1008.20 1008.47 1008.85 1009.68 1010.63 1010.47 1010.85 1011.45 1011.76 1011.83 1012.13 1012.64 1012.88 1013.17 1013.60 1013.78 1013.68 1013.42 1013.47 1013.10 1013.10 1013.02 1012.81 1012.55 1012.60 1012.83 1013.05
1011.96 1011.57 1011.14 1010.66 1010.02 1009.32 1008.49 1007.90 1007.51 1007.10 1007.04 1007.13 1007.36 1007.47 1007.52 1008.00 1008.38 1008.78 1007.88 1008.19 1010.54 1010.59 1010.51 1010.94 1011.12 1011.05 1011.23 1011.45 1012.16 1012.32 1012.75 1013.01 1013.11 1013.07 1012.97 1012.91 1012.90 1012.78 1012.79 1012.74 1012.63 1012.47 1012.71
1011.81 1011.37 1010.85 1010.31 1009.68 1008.95 1008.18 1007.43 1006.83 1006.42 1006.19 1006.17 1006.31 1006.54 1007.08 1007.95 1008.24 1008.47 1007.22 1010.13 1009.25 1009.67 1010.59 1010.84 1010.63 1010.33 1010.65 1010.69 1011.31 1011.38 1011.73 1012.09 1012.28 1012.31 1012.25 1012.24 1012.31 1012.49 1012.53 1012.54 1012.44 1012.33 1012.27
1011.63 1011.16 1010.61 1009.93 1009.25 1008.53 1007.73 1007.03 1006.45 1005.97 1005.54 1005.35 1005.18 1005.38 1006.15 1006.77 1007.00 1007.09 1006.56 1006.59 1007.79 1009.07 1009.14 1009.68 1009.95 1009.33 1009.76 1009.93 1010.44 1010.73 1010.74 1011.37 1011.52 1011.74 1011.90 1011.76 1011.89 1012.04 1012.30 1012.34 1012.26 1012.14 1012.03
1011.43 1010.90 1010.22 1009.41 1008.68 1008.12 1007.33 1006.49 1005.83 1005.33 1004.77 1004.47 1004.25 1004.52 1005.08 1005.61 1006.04 1006.32 1005.78 1005.56 1006.11 1005.98 1006.63 1007.30 1007.73 1007.87 1008.69 1008.90 1009.41 1009.85 1010.25 1010.57 1010.93 1011.06 1011.30 1011.48 1011.47 1011.87 1011.88 1011.82 1011.93 1011.93 1011.71
1011.04 1010.55 1009.85 1009.05 1008.26 1007.43 1006.71 1005.88 1005.15 1004.58 1003.64 1003.35 1003.28 1003.51 1004.18 1004.43 1004.75 1005.30 1005.73 1006.03 1006.09 1006.41 1006.83 1006.95 1006.50 1006.90 1007.90 1008.17 1008.46 1008.71 1009.26 1009.50 1009.82 1010.00 1010.46 1010.60 1010.80 1011.20 1011.08 1011.43 1011.75 1012.05 1011.93
1010.75 1010.16 1009.40 1008.71 1007.76 1007.00 1006.02 1005.19 1004.52 1003.83 1002.98 1002.56 1002.53 1002.80 1003.14 1003.39 1003.67 1004.16 1004.83 1005.39 1005.82 1005.85 1006.27 1005.63 1006.53 1007.17 1007.69 1008.00 1007.87 1008.30 1008.59 1008.59 1008.60 1008.93 1009.23 1009.47 1009.96 1010.19 1010.49 1010.79 1011.05 1011.17 1011.17
1010.56 1009.83 1009.15 1008.23 1007.57 1006.53 1005.15 1003.89 1003.54 1003.11 1002.53 1002.14 1001.96 1002.30 1002.36 1002.27 1002.93 1003.31 1003.54 1004.14 1004.37 1004.53 1004.97 1005.49 1005.99 1006.38 1006.94 1007.26 1007.52 1008.11 1007.91 1007.86 1007.91 1008.14 1008.07 1008.44 1008.90 1009.23 1009.59 1009.76 1010.19 1010.51 1010.70
1010.34 1009.59 1008.69 1008.00 1007.29 1006.33 1005.30 1003.98 1003.02 1002.52 1002.03 1001.71 1001.59 1001.68 1001.87 1002.00 1002.22 1002.57 1003.20 1003.76 1004.16 1004.65 1005.17 1005.68 1006.02 1006.02 1005.88 1006.44 1007.41 1007.46 1007.16 1007.00 1007.04 1007.32 1007.19 1007.64 1008.08 1008.46 1008.84 1009.55 1010.10 1010.47 1010.50
1010.12 1009.31 1008.41 1007.73 1007.08 1006.41 1005.41 1004.06 1002.99 1002.24 1001.61 1001.51 1001.46 1001.50 1001.60 1001.85 1002.24 1002.48 1003.21 1003.57 1003.98 1004.31 1004.59 1004.66 1004.87 1005.02 1005.25 1005.80 1006.35 1005.97 1006.17 1006.12 1006.30 1006.43 1007.09 1007.53 1007.62 1007.97 1008.36 1008.69 1009.17 1009.69 1010.00
1009.75 1008.80 1008.02 1007.33 1006.53 1005.81 1005.51 1004.39 1003.30 1002.06 1002.09 1001.71 1001.82 1001.95 1001.86 1002.11 1002.73 1002.95 1003.09 1003.26 1003.60 1003.78 1003.79 1003.97 1004.42 1004.55 1004.91 1004.92 1005.01 1005.24 1004.97 1005.02 1005.02 1005.85 1006.70 1007.26 1007.67 1008.15 1008.43 1008.49 1008.47 1008.87 1009.24
1009.40 1008.38 1007.75 1007.04 1006.21 1005.73 1005.57 1004.91 1003.98 1002.79 1002.62 1002.54 1002.52 1002.41 1002.54 1002.72 1002.75 1003.08 1003.46 1003.47 1003.57 1003.62 1003.89 1003.97 1004.44 1004.58 1004.73 1004.29 1004.80 1004.59 1004.05 1004.24 1005.32 1006.34 1006.99 1007.31 1007.66 1007.80 1008.11 1008.09 1008.09 1008.31 1008.20
1009.05 1008.33 1007.55 1006.67 1006.09 1006.04 1005.74 1005.50 1005.10 1004.36 1004.13 1003.37 1003.88 1003.47 1003.42 1003.24 1003.36 1003.53 1003.60 1003.71 1003.69 1003.91 1004.04 1004.25 1004.65 1004.66 1004.86 1005.00 1005.02 1004.79 1004.84 1005.29 1006.02 1006.75 1007.08 1007.12 1007.51 1007.65 1007.78 1007.83 1007.81 1007.75 1007.96
1009.42 1008.73 1007.75 1006.87 1006.68 1006.55 1006.50 1006.05 1006.01 1005.51 1005.18 1005.13 1004.67 1004.54 1004.98 1004.58 1004.49 1004.23 1004.26 1004.46 1004.33 1004.37 1004.71 1005.16 1005.06 1005.17 1005.40 1005.50 1005.64 1005.78 1005.82 1005.97 1006.31 1006.79 1007.03 1007.03 1006.97 1007.12 1007.59 1007.72 1007.84 1007.95 1008.22
1009.66 1009.36 1008.01 1007.34 1007.04 1006.95 1006.94 1006.84 1006.60 1006.42 1006.39 1006.07 1005.79 1005.72 1005.91 1005.79 1005.92 1005.83 1005.30 1005.44 1005.18 1005.00 1005.05 1004.95 1005.02 1004.93 1005.51 1005.56 1005.80 1005.97 1006.13 1006.25 1006.54 1006.76 1007.08 1006.95 1007.06 1007.42 1007.89 1008.01 1008.10 1008.10 1008.39
1009.12 1008.82 1008.05 1007.23 1007.12 1006.86 1007.01 1007.13 1007.08 1007.06 1006.78 1006.14 1005.93 1006.13 1006.47 1006.43 1006.52 1006.28 1006.10 1005.90 1005.64 1005.47 1005.46 1005.62 1005.70 1005.80 1005.67 1006.13 1006.17 1006.33 1006.58 1006.74 1006.88 1006.87 1007.13 1007.24 1007.66 1008.09 1008.10 1008.40 1008.52 1008.52 1008.75
1008.99 1008.42 1008.11 1007.63 1007.28 1007.07 1006.98 1007.14 1007.01 1006.74 1006.88 1006.61 1006.58 1006.72 1006.70 1006.80 1006.78 1006.63 1006.23 1005.91 1005.67 1005.20 1005.16 1005.46 1005.59 1005.65 1005.82 1006.30 1006.44 1006.83 1007.07 1007.13 1007.10 1007.44 1007.63 1007.68 1007.98 1008.21 1008.30 1008.64 1008.61 1008.78 1008.98
1008.64 1008.40 1008.17 1007.74 1007.55 1007.37 1007.03 1006.97 1007.00 1007.08 1006.97 1006.92 1006.77 1006.99 1007.38 1007.45 1007.15 1006.72 1006.17 1005.40 1005.78 1005.72 1005.80 1005.88 1006.00 1005.92 1006.35 1006.70 1006.88 1006.85 1007.23 1007.43 1007.64 1007.81 1008.06 1008.16 1008.17 1008.18 1008.29 1008.36 1008.60 1008.69 1008.87
1008.35 1008.28 1008.21 1007.90 1007.44 1007.49 1007.38 1007.34 1007.24 1007.11 1007.12 1007.13 1007.05 1007.44 1007.27 1006.77 1006.45 1006.58 1006.46 1006.53 1006.64 1006.49 1006.44 1006.11 1005.91 1005.97 1006.17 1006.43 1006.88 1007.04 1007.46 1007.73 1007.87 1008.08 1008.33 1008.32 1008.36 1008.18 1008.33 1008.48 1008.58 1008.87 1009.14
1008.25 1008.19 1008.16 1007.96 1007.64 1007.54 1007.43 1007.26 1007.04 1007.16 1007.04 1007.26 1007.89 1008.13 1007.65 1007.01 1007.22 1007.33 1007.23 1007.08 1006.91 1006.73 1006.62 1006.51 1006.70 1006.44 1006.62 1006.76 1007.02 1007.23 1007.75 1008.07 1008.13 1008.16 1008.26 1008.06 1008.10 1008.20 1008.10 1008.43 1008.64 1008.80 1008.90
1008.53 1008.46 1008.42 1008.11 1007.95 1007.86 1007.94 1007.73 1007.46 1007.43 1007.57 1008.07 1008.24 1008.38 1008.31 1008.19 1008.38 1008.19 1008.14 1008.02 1007.87 1007.58 1007.24 1007.08 1007.13 1007.23 1007.26 1007.45 1007.72 1007.91 1008.33 1008.56 1008.47 1008.48 1008.40 1008.07 1007.88 1008.04 1007.91 1008.16 1008.46 1008.39 1008.70
1009.00 1008.97 1008.78 1008.59 1008.40 1008.32 1008.26 1008.13 1008.04 1008.17 1008.56 1008.86 1009.09 1009.18 1008.68 1008.88 1009.03 1009.02 1008.96 1008.88 1008.68 1008.50 1008.45 1008.30 1008.38 1008.61 1008.61 1008.67 1008.52 1008.78 1009.13 1009.45 1009.58 1009.47 1008.70 1008.44 1008.03 1007.91 1007.97 1008.04 1008.06 1008.15 1008.26
1009.45 1009.32 1009.41 1009.45 1009.37 1009.17 1009.13 1009.27 1009.14 1009.19 1009.42 1009.49 1009.51 1009.52 1009.62 1009.73 1009.80 1009.70 1009.56 1009.62 1009.63 1009.59 1009.54 1009.51 1009.60 1009.65 1009.66 1009.56 1009.34 1009.57 1009.81 1009.77 1010.14 1009.66 1009.35 1008.87 1008.77 1008.74 1008.47 1008.25 1007.97 1007.95 1008.03
1009.89 1010.05 1010.28 1010.41 1010.29 1010.29 1010.26 1010.18 1010.17 1010.16 1010.36 1010.54 1010.50 1010.49 1010.44 1010.33 1010.37 1010.31 1010.28 1010.33 1010.24 1010.31 1010.28 1010.32 1010.44 1010.45 1010.43 1010.35 1010.25 1010.15 1010.11 1010.71 1009.83 1010.47 1009.77 1009.52 1009.36 1009.13 1008.75 1008.42 1008.15 1008.00 1007.69
1010.60 1010.99 1011.23 1011.36 1011.36 1011.42 1011.46 1011.44 1011.35 1011.29 1011.18 1011.16 1011.26 1011.14 1011.13 1010.99 1010.92 1010.86 1010.83 1010.81 1010.68 1010.54 1010.51 1010.54 1010.59 1010.77 1010.84 1010.79 1010.78 1010.72 1010.65 1010.47 1010.25 1009.99 1009.71 1009.60 1009.45 1009.32 1009.06 1008.85 1008.39 1007.89 1007.55
1011.50 1011.75 1012.05 1012.23 1012.36 1012.36 1012.34 1012.26 1012.23 1012.17 1012.09 1012.06 1012.05 1011.97 1011.93 1011.76 1011.60 1011.49 1011.30 1011.07 1010.90 1010.82 1010.75 1010.80 1010.68 1010.75 1010.90 1011.06 1011.17 1011.33 1011.26 1010.92 1010.42 1010.15 1009.76 1009.65 1009.66 1009.58 1009.43 1009.28 1008.82 1008.29 1007.79
Thickness
5733 5732 5731 5731 5735 5738 5740 5745 5747 5748 5747 5746 5747 5751 5751 5754 5755 5754 5753 5752 5744 5749 5747 5747 5748 5752 5752 5749 5751 5750 5748 5748 5749 5755 5759 5764 5763 5763 5767 5770 5770 5769 5766
5721 5720 5718 5719 5722 5724 5730 5732 5735 5738 5737 5738 5735 5736 5739 5736 5734 5735 5728 5725 5730 5732 5741 5735 5743 5749 5752 5753 5747 5749 5748 5748 5748 5748 5755 5757 5758 5761 5762 5763 5766 5766 5764
5709 5707 5705 5705 5707 5711 5715 5720 5723 5725 5728 5729 5727 5728 5724 5718 5717 5701 5709 5706 5706 5719 5719 5728 5734 5745 5744 5751 5748 5750 5749 5751 5751 5752 5754 5758 5757 5758 5758 5759 5760 5762 5761
5695 5693 5692 5693 5694 5696 5700 5704 5709 5712 5716 5719 5723 5721 5716 5715 5717 5718 5724 5724 5710 5708 5716 5724 5731 5744 5743 5749 5747 5749 5752 5747 5751 5751 5751 5753 5754 5755 5754 5751 5752 5756 5756
5680 5679 5679 5680 5681 5682 5686 5691 5695 5699 5706 5713 5716 5714 5711 5714 5716 5718 5724 5735 5735 5734 5733 5735 5743 5749 5745 5748 5750 5748 5748 5747 5746 5749 5750 5749 5750 5747 5748 5750 5749 5749 5752
5670 5667 5667 5668 5671 5673 5676 5680 5685 5691 5702 5708 5711 5710 5707 5714 5717 5718 5717 5717 5725 5725 5720 5726 5738 5742 5741 5745 5747 5749 5748 5747 5746 5751 5751 5750 5748 5744 5747 5743 5741 5738 5737
5662 5660 5659 5659 5659 5662 5669 5675 5679 5687 5698 5704 5708 5708 5708 5711 5714 5716 5714 5712 5713 5717 5717 5730 5722 5728 5731 5735 5741 5741 5743 5746 5748 5749 5751 5753 5747 5745 5745 5742 5739 5738 5737
5653 5651 5651 5652 5651 5656 5667 5676 5679 5685 5693 5699 5704 5704 5707 5712 5707 5708 5714 5714 5717 5719 5718 5715 5717 5724 5726 5731 5733 5730 5738 5744 5745 5746 5751 5752 5750 5748 5745 5743 5738 5736 5735
5646 5646 5647 5648 5646 5648 5652 5666 5676 5684 5689 5694 5700 5704 5705 5707 5708 5708 5706 5705 5708 5708 5709 5708 5712 5715 5722 5724 5723 5725 5734 5740 5743 5744 5749 5748 5748 5745 5741 5735 5729 5725 5722
5640 5641 5645 5647 5646 5643 5647 5659 5669 5676 5684 5688 5694 5699 5702 5704 5703 5704 5700 5703 5703 5705 5707 5712 5715 5718 5716 5717 5722 5727 5726 5735 5736 5738 5737 5735 5738 5736 5733 5731 5726 5720 5717
5638 5640 5644 5646 5648 5647 5644 5654 5663 5674 5674 5681 5684 5688 5691 5694 5692 5693 5696 5699 5700 5703 5708 5711 5711 5712 5710 5715 5719 5719 5725 5731 5735 5731 5727 5724 5725 5723 5721 5721 5722 5719 5713
5636 5640 5642 5645 5648 5647 5644 5649 5657 5664 5666 5668 5673 5679 5682 5685 5688 5688 5687 5691 5694 5697 5699 5703 5703 5705 5703 5711 5710 5714 5723 5727 5720 5713 5709 5711 5711 5713 5712 5714 5715 5712 5714
5635 5638 5642 5646 5647 5644 5643 5643 5647 5649 5652 5661 5659 5667 5672 5678 5680 5680 5683 5683 5686 5688 5691 5692 5690 5694 5697 5699 5699 5703 5707 5707 5703 5698 5699 5701 5698 5703 5705 5707 5706 5705 5704
5626 5631 5637 5642 5640 5637 5634 5637 5638 5643 5647 5648 5647 5656 5658 5659 5666 5672 5675 5675 5678 5682 5680 5679 5682 5684 5685 5684 5687 5687 5690 5691 5690 5689 5689 5693 5696 5696 5692 5692 5691 5690 5690
5620 5621 5631 5635 5636 5634 5631 5630 5634 5632 5635 5643 5643 5644 5647 5653 5652 5653 5661 5664 5668 5671 5674 5677 5675 5672 5675 5675 5677 5676 5679 5681 5680 5680 5680 5682 5683 5682 5680 5680 5680 5681 5678
5618 5620 5625 5633 5633 5638 5636 5634 5630 5631 5634 5639 5641 5644 5643 5643 5644 5648 5651 5653 5656 5660 5664 5661 5660 5659 5663 5661 5664 5666 5666 5667 5669 5669 5668 5670 5668 5667 5669 5668 5667 5668 5667
5614 5619 5623 5626 5630 5634 5635 5634 5635 5637 5631 5633 5635 5636 5640 5641 5642 5645 5648 5651 5655 5661 5664 5663 5661 5661 5660 5656 5656 5654 5656 5658 5659 5659 5660 5661 5660 5660 5660 5659 5660 5658 5658
5616 5616 5619 5622 5625 5627 5632 5635 5635 5635 5636 5637 5636 5633 5631 5632 5637 5642 5647 5657 5656 5657 5656 5656 5655 5657 5655 5653 5652 5654 5650 5650 5649 5649 5649 5650 5652 5654 5655 5655 5652 5651 5651
5620 5619 5618 5619 5624 5624 5625 5626 5627 5631 5633 5633 5633 5630 5631 5636 5639 5640 5643 5646 5646 5648 5649 5653 5656 5655 5654 5653 5650 5649 5646 5644 5644 5644 5643 5644 5644 5647 5647 5645 5645 5642 5640
5621 5623 5621 5621 5623 5624 5623 5625 5628 5628 5632 5631 5624 5624 5629 5636 5635 5636 5638 5639 5641 5643 5645 5646 5646 5649 5648 5646 5644 5643 5639 5636 5636 5637 5637 5639 5637 5637 5638 5636 5633 5633 5632
5616 5617 5618 5622 5623 5623 5621 5623 5626 5626 5626 5622 5621 5621 5621 5624 5623 5626 5626 5628 5629 5632 5634 5636 5636 5634 5634 5632 5630 5629 5627 5625 5625 5625 5626 5628 5629 5627 5629 5626 5624 5624 5620
5609 5610 5612 5614 5616 5616 5618 5618 5622 5622 5618 5615 5611 5611 5612 5613 5612 5613 5614 5615 5616 5618 5618 5620 5619 5616 5615 5614 5615 5611 5608 5605 5604 5605 5610 5611 5615 5617 5616 5615 5614 5611 5610
5604 5606 5606 5605 5605 5605 5605 5604 5606 5608 5606 5605 5605 5603 5601 5597 5597 5599 5601 5600 5599 5600 5600 5600 5599 5597 5596 5596 5597 5595 5592 5591 5587 5589 5591 5594 5595 5594 5596 5598 5600 5600 5598
5597 5595 5594 5593 5594 5593 5593 5594 5593 5591 5590 5588 5588 5587 5586 5586 5584 5584 5584 5582 5581 5580 5581 5580 5578 5577 5577 5576 5576 5576 5575 5568 5574 5567 5572 5573 5573 5574 5577 5580 5582 5583 5585
5590 5584 5581 5580 5579 5576 5575 5574 5574 5573 5575 5575 5574 5574 5573 5572 5570 5570 5569 5566 5565 5565 5564 5565 5563 5560 5558 5557 5555 5553 5553 5553 5553 5554 5554 5555 5556 5556 5558 5559 5563 5567 5569
5575 5572 5568 5565 5562 5561 5560 5560 5560 5559 5558 5557 5556 5555 5553 5554 5554 5554 5553 5553 5551 5549 5548 5546 5545 5543 5540 5536 5534 5532 5530 5531 5532 5534 5534 5534 5533 5533 5534 5534 5537 5542 5546